Regional Weather Roundup
Issued by NWS

Home | Current Version | Previous Version | Text Only | Print | Product List | Glossary Off
Versions: 1 2 3 4 5 6 7 8 9 10 11 12 13 14 15 16 17 18 19 20 21 22 23 24 25 26 27 28 29 30 31 32 33 34 35 36 37 38 39 40 41 42 43 44 45 46 47 48 49 50

000
ASUS43 KIND 232109
RWRIN

WEATHER ROUNDUP FOR INDIANA
NATIONAL WEATHER SERVICE INDIANAPOLIS IN
500 PM EDT WED JUL 23 2014

NOTE: "FAIR" INDICATES FEW OR NO CLOUDS BELOW 12,000 FEET WITH NO
SIGNIFICANT WEATHER AND/OR OBSTRUCTIONS TO VISIBILITY.

* - STATION DOES NOT REPORT WEATHER SUCH AS PRECIPITATION OR FOG.

+ - STATION NOT QUALITY CONTROLLED BY THE NATIONAL WEATHER SERVICE.
    USE DATA WITH CAUTION...ESPECIALLY DEWPOINT AND RELATIVE
    HUMIDITY OBSERVATIONS.

INZ001>003-010>013-019-020-232200-
NORTHWEST INDIANA

CITY           SKY/WX    TMP DP  RH WIND       PRES   REMARKS
GARY /AIRPORT/ MOSUNNY   68  57  68 N14G30    30.15F
KNOX *+        MOSUNNY   70  58  65 N17       30.09F
LA PORTE +     CLOUDY    65  58  76 N17       30.12F
MICHIGAN CITY+ PTSUNNY   64  54  68 N13G24    30.13S
MONTICELLO +   SUNNY     74  61  64 N16G24    30.06S
RENSSELAER +   SUNNY     70  59  68 N13G22    30.10F
VALPARAISO     PTSUNNY   67  57  70 N13G20    30.12F

$$

LMZ046-743>745-232200-
SOUTHERN LAKE MICHIGAN

STATION/POSITION TIME  TEMP WIND        PRES
                       AIR  DIR/SP/G
                 (UTC) (F)  (DEG/KT/KT) (MB)
MICHIGAN CITY    2100   63  340/ 26/ 31   N/A

$$

INZ004-005-014>016-021>024-232200-
NORTH CENTRAL INDIANA

CITY           SKY/WX    TMP DP  RH WIND       PRES   REMARKS
ELKHART        PTSUNNY   72  59  64 N7        30.08S
GOSHEN         CLOUDY    74  58  57 N14       30.06S
LOGANSPORT +   MOSUNNY   73  61  64 N15G22    30.06S
PERU/GRISSOM   MOSUNNY   75  65  70 N14       30.05S
ROCHESTER +    PTSUNNY   79  61  53 N15G21    30.06S
SOUTH BEND     MOSUNNY   71  58  63 N20       30.09S
WARSAW +       PTSUNNY   72  59  64 N10G17    30.06S

$$

INZ006>009-017-018-025>027-232200-
NORTHEAST INDIANA

CITY           SKY/WX    TMP DP  RH WIND       PRES   REMARKS
ANGOLA *+      CLOUDY    73  57  56 N6        30.06R
AUBURN +       CLOUDY    75  57  53 NW10      30.05R
FORT WAYNE     CLOUDY    77  62  59 N13       30.04F
HUNTINGTON +   PTSUNNY   72  61  68 N8G16     30.04S

$$

INZ028-029-035-036-043>045-051>053-232200-
WEST CENTRAL INDIANA

CITY           SKY/WX    TMP DP  RH WIND       PRES   REMARKS
GREENCASTLE +  CLOUDY    70  68  94 N6        30.04F
LAFAYETTE      SUNNY     75  58  55 N16G22    30.06R
TERRE HAUTE    CLOUDY    74  68  81 N5        30.03F

$$

INZ030>032-037>040-046>048-054>057-064-065-232200-
CENTRAL INDIANA

CITY           SKY/WX    TMP DP  RH WIND       PRES   REMARKS
CP ATTERBURY + CLOUDY    75  68  78 NW6       30.01S
COLUMBUS       PTSUNNY   77  72  83 NW9       29.99F
GREENWOOD *+   CLOUDY    77  73  88 N10       30.02
INDIANAPOLIS   CLOUDY    72  67  84 N15       30.02S
-EAGLE CREEK   CLOUDY    71  67  87 N7        30.02F
KOKOMO *+      CLOUDY    75  64  69 N13       30.04S
MARION +       CLOUDY    71  63  77 N10       30.05S
MT COMFORT *+  CLOUDY    72 N/A N/A N13       30.03R
SHELBYVILLE    CLOUDY    79  70  74 N9        30.00F
ZIONSVILLE +   CLOUDY    74  65  74 N8        30.04S

$$

INZ033-034-041-042-049-050-058-059-232200-
EAST CENTRAL INDIANA

CITY           SKY/WX    TMP DP  RH WIND       PRES   REMARKS
MUNCIE         CLOUDY    71  65  81 N10       30.03S

$$

INZ060-061-067>069-081>083-085>088-232200-
SOUTHWEST INDIANA

CITY           SKY/WX    TMP DP  RH WIND       PRES   REMARKS
EVANSVILLE     CLOUDY    81  71  71 N8        30.00F
HUNTINGBURG *+ CLOUDY    82  70  65 N9        30.00S
WASHINGTON +   CLOUDY    78  73  86 NW6       30.00S

$$

INZ062-063-066-070>080-084-089>092-232200-
SOUTH CENTRAL AND SOUTHEAST INDIANA

CITY           SKY/WX    TMP DP  RH WIND       PRES   REMARKS
BLOOMINGTON    CLOUDY    75  69  81 VRB5      30.01F
SEYMOUR +      CLOUDY    81  55  41 W5        29.98F

$$




USA.gov is the U.S. government's official web portal to all federal, state and local government web resources and services.